Wetbulb
44.48 44.47 44.70 44.77 45.25 46.33 47.28 44.71 37.46 50.20 52.49 42.14 42.57 39.02 40.66 42.94 42.80 44.22 42.13 42.76 41.32 39.25 39.28 37.52 36.88 36.74 38.84 40.22 39.20 34.65 35.66 36.51 31.63 32.75 34.90 34.73 33.07 34.04 32.41 27.70 26.16 27.33 27.56 27.78
44.55 44.23 44.06 44.24 44.87 45.47 41.64 39.92 39.25 50.46 50.28 35.67 37.61 40.51 40.44 42.67 41.26 41.75 41.52 40.31 41.23 41.79 38.69 35.51 38.44 38.50 41.08 41.92 40.16 38.41 39.38 34.15 28.21 28.88 30.69 32.49 31.59 34.14 34.96 34.71 31.96 28.44 25.44 26.95
44.23 44.48 44.75 43.92 44.00 44.85 40.42 38.83 30.72 40.42 44.83 42.03 38.94 36.33 36.60 37.17 41.96 41.64 42.16 40.90 41.53 38.97 37.01 38.70 36.33 36.40 38.12 37.54 37.77 40.83 40.22 34.04 31.48 26.32 28.74 32.99 31.87 33.33 34.48 33.46 29.10 28.42 28.65 30.24
44.66 44.22 43.70 44.05 44.61 44.97 37.51 33.13 30.96 35.10 28.88 34.13 36.66 37.32 35.90 33.86 33.64 37.83 40.10 38.26 37.80 36.56 33.78 35.01 34.74 36.58 36.39 35.23 37.21 35.51 36.43 30.74 32.43 32.72 34.31 33.21 31.40 29.84 29.53 28.38 29.99 26.44 28.48 29.56
44.75 44.76 44.06 43.50 44.29 44.30 33.67 29.21 30.47 32.39 30.36 31.25 31.51 32.77 32.09 32.98 33.96 34.79 34.02 33.61 34.97 35.30 32.62 33.49 31.98 33.08 31.04 30.85 32.53 32.28 34.28 26.99 28.02 23.92 27.14 26.85 25.80 27.99 27.77 28.14 27.69 28.06 28.69 25.63
44.78 44.89 44.62 44.91 44.82 41.74 31.26 32.16 33.41 33.65 28.52 27.45 26.04 26.05 28.74 29.78 30.54 32.02 31.51 30.04 31.33 30.59 32.06 32.69 32.42 31.68 31.21 30.93 28.54 27.70 28.35 26.89 23.77 19.15 23.82 22.87 17.72 23.11 25.42 26.83 28.80 24.63 20.76 19.47
45.60 44.98 44.44 45.09 44.31 43.05 34.71 32.75 31.38 29.09 21.18 26.15 26.02 27.65 27.14 26.31 26.47 25.62 27.99 29.33 28.46 30.45 32.73 32.35 30.19 30.20 29.23 28.55 28.10 29.39 25.98 23.79 20.05 18.83 14.68 10.21 20.96 24.83 25.16 23.10 22.66 23.47 22.01 19.69
45.61 44.90 44.51 44.44 44.67 44.63 38.90 35.04 32.16 25.62 17.95 26.13 25.82 26.58 26.46 25.10 24.50 24.93 25.79 27.24 30.71 31.65 26.16 20.67 10.80 10.39 14.11 22.12 24.83 25.31 27.76 24.05 13.14 11.45 5.65 16.37 21.56 20.65 19.72 20.13 19.72 22.28 21.88 23.93
45.61 45.84 45.73 45.25 44.59 44.39 37.58 37.89 36.37 33.10 24.16 21.85 27.53 24.49 24.99 19.38 16.98 19.37 24.13 26.75 25.86 27.33 21.99 10.62 -0.32 1.60 7.63 7.86 15.33 23.45 23.67 25.70 20.84 8.96 7.60 0.05 17.26 21.84 24.27 23.61 11.96 18.20 20.72 21.51
44.86 44.87 45.52 45.77 45.58 44.88 38.46 35.44 37.60 34.69 28.18 28.05 27.27 23.28 23.48 25.97 22.57 14.67 14.62 17.09 19.74 24.86 16.95 -3.43 -0.00 2.42 17.14 6.19 4.45 6.89 1.45 -0.38 7.75 4.42 1.02 5.69 16.28 19.65 22.29 5.37 8.74 15.46 20.75 22.01
43.98 43.63 44.35 45.11 45.16 45.21 42.88 38.18 38.64 35.49 30.89 29.58 29.07 29.75 25.65 24.62 21.52 14.42 15.00 16.64 14.96 15.38 5.54 1.33 13.36 5.56 14.66 11.09 14.49 13.62 11.03 1.51 -4.00 -6.23 -6.25 -1.82 20.41 19.01 12.97 16.23 20.01 19.79 21.30 24.17
44.30 44.03 44.16 44.03 44.80 44.34 44.10 37.95 38.83 39.53 33.34 30.16 30.80 32.12 33.28 31.30 28.20 23.35 16.32 20.02 10.91 20.09 13.57 8.20 8.46 2.76 3.46 6.44 1.47 17.11 7.91 13.35 4.75 8.23 7.06 21.08 23.38 21.27 25.36 23.77 20.27 21.88 23.49 25.63
44.16 43.93 43.46 43.79 43.97 44.08 42.82 38.87 38.48 37.06 31.89 31.38 30.91 29.06 32.50 33.54 32.83 33.58 24.25 19.00 26.51 23.48 25.52 19.69 19.59 13.58 15.63 5.02 5.32 10.93 16.65 20.12 16.38 16.51 20.19 21.24 23.45 25.63 24.19 25.00 24.42 24.99 24.70 23.88
43.58 43.18 43.09 43.05 43.09 43.35 42.97 38.00 39.18 37.16 32.67 25.23 23.78 28.06 28.70 32.97 33.63 32.14 32.10 30.10 27.39 27.43 26.83 23.92 19.93 16.41 22.84 17.42 18.38 16.49 18.85 18.03 14.52 16.28 20.87 22.33 23.60 24.61 25.53 25.65 25.19 22.44 21.87 20.62
43.22 42.72 42.65 42.39 42.31 42.59 41.52 39.32 39.05 38.81 32.57 24.08 19.42 19.70 26.98 29.53 30.63 30.10 30.83 29.62 27.91 27.11 24.52 22.45 18.90 21.80 21.99 21.49 20.89 17.41 21.56 19.15 15.71 14.31 22.61 22.11 22.91 25.73 23.59 22.29 21.43 18.17 16.87 16.12
42.79 42.46 42.14 41.88 41.78 41.98 37.17 31.08 37.83 39.48 38.26 28.70 21.36 25.31 20.63 26.04 27.23 27.16 27.66 28.12 27.77 27.12 24.97 23.12 24.71 26.35 23.06 18.29 15.66 21.81 23.87 24.38 24.64 21.68 25.43 24.77 25.00 20.46 17.95 16.78 15.27 15.97 14.33 14.07
42.40 42.38 41.99 41.83 41.57 37.77 33.13 30.28 30.93 40.35 38.25 28.71 22.52 19.88 17.95 24.87 24.64 21.37 24.66 26.81 25.68 25.82 24.33 22.68 22.97 23.07 24.70 20.54 15.81 22.42 23.36 23.84 24.41 19.62 18.15 20.66 19.13 16.11 14.07 14.34 12.89 11.82 10.67 10.29
41.91 41.78 41.70 41.49 41.30 39.70 34.70 38.14 40.17 39.15 33.57 30.11 19.95 14.42 10.20 20.28 15.14 16.67 24.36 23.04 24.95 25.42 23.12 20.76 21.42 22.65 23.01 16.93 22.12 24.13 24.19 17.76 14.13 11.26 12.35 11.94 11.28 11.84 10.27 9.77 8.30 5.33 5.80 6.72
41.47 41.23 40.92 37.56 35.03 31.58 33.35 40.33 41.07 38.42 32.19 22.78 20.65 8.19 4.88 21.69 19.73 21.73 18.09 23.86 17.17 24.34 20.12 20.65 20.46 16.04 14.51 18.18 21.75 21.06 8.08 9.34 5.60 6.68 7.11 6.53 5.00 5.42 5.58 3.74 2.78 1.25 2.40 2.89
40.97 37.88 31.60 27.17 31.29 37.99 38.50 34.60 30.39 29.11 28.92 27.07 20.33 4.27 4.97 21.08 18.22 14.23 14.68 21.02 17.62 13.70 15.09 21.36 18.07 16.18 21.83 11.56 6.79 6.21 4.93 3.32 3.08 1.01 1.45 -1.85 -2.63 -0.54 -0.08 -0.25 1.01 1.19 1.21 -0.10
34.51 29.85 27.47 30.36 37.20 29.59 28.43 23.68 23.01 23.66 19.33 23.82 17.12 14.61 11.47 20.67 15.71 16.76 20.14 15.62 13.29 7.55 7.51 10.52 3.71 -0.48 13.99 4.32 3.46 5.73 4.72 2.94 -0.35 -1.51 -1.34 -1.43 -2.19 -2.75 -2.39 -1.79 -1.63 -2.26 -3.07 -4.55
32.78 31.77 33.02 33.41 28.43 23.65 20.27 18.17 18.97 17.41 12.97 9.37 12.92 18.15 22.35 19.71 21.44 15.85 17.61 14.19 13.55 6.25 2.80 10.26 6.83 10.38 0.11 -0.46 -0.96 -1.01 -1.68 -5.63 -6.67 -5.14 -5.04 -3.68 -2.38 -2.67 -4.16 -5.23 -5.86 -5.72 -5.10 -4.93
32.71 28.54 24.84 24.49 22.31 16.29 13.80 8.58 6.87 4.15 2.62 4.19 10.12 14.02 18.25 19.20 20.91 17.56 16.93 11.75 7.86 0.21 5.30 5.16 3.99 -1.59 -5.77 -7.49 -6.12 -6.35 -6.90 -8.39 -8.74 -7.85 -6.93 -6.65 -7.04 -6.73 -7.95 -8.53 -7.24 -7.34 -8.13 -7.73
25.41 21.56 15.76 15.94 13.55 11.10 7.82 4.21 2.83 9.36 7.73 4.36 8.21 11.33 15.46 13.88 16.13 17.14 10.79 9.32 9.21 5.27 3.79 -1.88 -4.02 -10.51 -13.35 -11.32 -8.01 -15.46 -13.82 -15.59 -12.00 -12.46 -11.45 -10.57 -10.29 -9.78 -9.42 -9.66 -9.33 -10.19 -10.39 -7.58
22.28 20.39 12.93 14.73 -0.57 -5.88 -12.12 -12.91 0.33 5.72 9.37 12.59 9.81 6.76 18.42 8.14 12.90 16.65 11.28 6.19 5.72 6.24 1.45 -2.96 -12.36 -10.98 -9.65 -10.17 -15.08 -19.57 -18.73 -15.80 -16.08 -16.10 -16.34 -13.65 -12.83 -13.26 -13.20 -12.52 -12.83 -11.96 -8.49 -5.42
23.48 17.70 10.81 -3.54 -0.71 -9.90 -9.83 -13.46 -6.68 0.91 11.59 6.69 9.92 7.15 12.70 10.12 13.27 12.17 9.27 5.37 -0.90 2.24 -12.39 -14.58 -9.62 -10.49 -12.75 -19.17 -21.83 -19.46 -19.30 -20.32 -20.12 -19.47 -18.98 -14.87 -15.22 -15.08 -13.41 -12.94 -13.44 -9.60 -6.15 -4.12
12.48 4.13 -2.04 1.73 5.99 4.66 -7.77 -7.26 -1.26 6.79 4.77 0.02 8.97 9.01 5.77 11.37 7.05 1.69 0.37 -0.02 -5.89 -15.29 -12.97 -12.30 -14.29 -17.84 -20.91 -22.76 -24.29 -22.61 -23.70 -22.62 -22.10 -25.15 -21.61 -20.18 -18.36 -18.32 -20.31 -17.07 -12.52 -6.67 -3.17 -2.62
MSLP
1019.23 1019.40 1019.57 1019.18 1019.26 1018.95 1018.63 1018.64 1018.39 1017.29 1016.99 1017.70 1017.28 1015.91 1015.17 1014.99 1013.97 1014.34 1014.30 1013.52 1013.50 1013.87 1013.78 1013.98 1013.87 1013.33 1012.94 1012.72 1012.66 1013.07 1013.12 1012.37 1013.00 1011.80 1011.28 1011.26 1011.42 1011.82 1012.04 1011.96 1010.86 1010.15 1009.17 1007.89
1019.15 1019.28 1019.27 1019.38 1019.37 1019.13 1019.54 1018.89 1018.25 1017.61 1016.93 1017.10 1016.59 1015.82 1015.21 1015.20 1014.36 1014.18 1014.19 1013.71 1013.79 1013.75 1013.88 1013.86 1013.40 1013.30 1012.73 1012.95 1013.36 1013.11 1013.48 1013.10 1012.87 1012.35 1011.74 1012.25 1012.40 1012.28 1012.31 1012.37 1011.99 1010.61 1010.23 1008.90
1019.12 1019.18 1019.21 1019.23 1019.44 1019.40 1019.74 1019.78 1018.72 1017.80 1017.29 1016.96 1016.95 1016.48 1015.53 1015.00 1014.20 1013.84 1014.19 1014.09 1014.14 1014.25 1014.23 1014.05 1013.75 1013.97 1013.85 1013.61 1013.84 1013.87 1014.46 1013.76 1014.03 1013.27 1012.82 1013.12 1012.96 1012.66 1012.60 1012.88 1011.88 1011.06 1011.01 1011.02
1018.92 1018.92 1019.19 1019.19 1019.27 1019.50 1020.05 1020.19 1019.70 1019.07 1018.16 1017.76 1017.44 1017.17 1016.19 1015.44 1014.81 1014.53 1014.61 1014.48 1014.49 1014.88 1014.96 1014.72 1014.74 1014.87 1014.84 1014.62 1014.43 1014.34 1014.54 1014.16 1014.33 1013.43 1013.73 1014.14 1013.91 1013.70 1013.23 1012.77 1012.83 1012.80 1012.06 1013.04
1018.75 1018.80 1018.89 1019.05 1019.50 1019.73 1020.75 1020.56 1020.46 1019.54 1019.41 1018.74 1018.23 1017.43 1016.61 1016.44 1015.13 1015.98 1015.36 1015.65 1015.47 1015.83 1016.00 1016.33 1016.09 1016.48 1016.55 1015.85 1015.56 1015.67 1015.53 1015.46 1015.75 1015.00 1014.54 1014.76 1014.26 1013.59 1012.85 1012.74 1012.33 1012.86 1013.56 1014.53
1018.24 1018.54 1018.73 1018.98 1019.27 1019.71 1020.45 1020.80 1020.78 1020.47 1019.55 1019.29 1019.05 1018.22 1017.74 1017.55 1017.51 1017.15 1017.17 1017.30 1017.06 1017.05 1017.29 1017.75 1017.77 1017.84 1017.80 1017.60 1017.24 1016.91 1017.00 1016.84 1016.80 1015.71 1015.94 1015.80 1014.60 1013.10 1013.05 1012.47 1012.27 1013.75 1014.63 1015.82
1017.86 1018.20 1018.29 1018.49 1018.57 1019.10 1020.16 1020.85 1021.04 1021.13 1020.11 1019.69 1019.24 1019.08 1019.11 1018.95 1019.20 1018.87 1018.50 1018.64 1018.62 1018.79 1018.71 1018.67 1018.61 1018.55 1018.31 1018.00 1017.28 1017.38 1017.35 1017.70 1017.94 1017.38 1017.88 1016.48 1013.67 1013.19 1013.45 1013.82 1014.82 1015.35 1016.01 1016.48
1017.13 1017.32 1017.58 1017.82 1018.17 1018.62 1019.46 1020.11 1020.68 1021.07 1020.52 1020.00 1019.57 1019.63 1019.69 1019.55 1019.67 1019.88 1019.67 1019.37 1019.21 1019.12 1019.47 1020.00 1019.96 1019.93 1019.46 1017.61 1017.07 1016.64 1017.14 1017.90 1018.58 1019.32 1018.85 1015.95 1014.77 1014.64 1014.86 1015.06 1015.93 1016.29 1016.50 1016.38
1016.70 1016.79 1016.97 1017.16 1017.51 1017.84 1018.94 1019.33 1019.67 1020.54 1020.79 1019.31 1019.44 1019.63 1019.75 1020.02 1020.31 1020.43 1019.99 1019.70 1019.77 1019.94 1020.75 1021.73 1022.47 1021.91 1020.54 1019.41 1017.81 1016.91 1017.18 1017.99 1019.40 1020.03 1019.49 1017.58 1015.95 1015.43 1015.16 1015.73 1016.20 1016.39 1016.42 1016.48
1015.90 1016.15 1016.38 1016.57 1016.84 1017.09 1017.90 1018.44 1018.81 1019.70 1019.74 1018.85 1018.97 1019.06 1019.25 1019.63 1020.29 1020.77 1020.89 1020.87 1020.83 1020.83 1021.72 1023.28 1023.47 1022.83 1021.14 1020.41 1019.62 1018.72 1019.16 1019.78 1020.38 1019.96 1019.77 1017.69 1016.36 1015.45 1015.32 1016.20 1016.48 1015.91 1016.01 1015.98
1014.97 1015.23 1015.49 1015.89 1016.12 1016.40 1016.93 1017.49 1017.84 1018.37 1018.31 1017.89 1018.12 1018.09 1018.45 1018.94 1019.42 1020.50 1020.92 1021.53 1021.51 1021.88 1022.31 1023.03 1022.72 1022.29 1021.13 1020.47 1019.63 1019.06 1019.31 1019.97 1020.65 1020.69 1019.66 1017.85 1015.68 1015.37 1015.64 1015.22 1015.10 1015.20 1015.24 1015.07
1014.11 1014.38 1014.70 1014.90 1015.14 1015.48 1016.03 1016.44 1016.74 1017.12 1017.42 1017.00 1017.00 1016.84 1016.55 1017.03 1017.48 1018.62 1020.08 1020.09 1020.25 1020.52 1021.20 1022.03 1021.99 1021.93 1021.38 1020.32 1019.84 1018.83 1018.97 1018.45 1019.22 1019.13 1016.95 1015.68 1015.13 1014.77 1014.25 1014.30 1014.70 1014.49 1014.58 1014.28
1013.29 1013.59 1013.85 1014.20 1014.45 1014.70 1015.00 1015.54 1016.18 1016.46 1016.31 1016.18 1016.52 1015.78 1015.69 1015.93 1016.26 1016.54 1018.00 1018.51 1018.57 1019.06 1019.07 1020.03 1020.32 1020.25 1019.77 1019.56 1018.47 1018.10 1017.36 1017.38 1017.43 1017.10 1015.19 1014.87 1014.11 1013.65 1013.65 1013.56 1013.72 1013.54 1013.70 1014.03
1012.39 1012.69 1013.03 1013.22 1013.59 1013.80 1014.06 1014.68 1015.08 1015.39 1015.66 1015.31 1014.73 1014.73 1014.84 1014.49 1015.28 1015.78 1016.11 1016.56 1017.45 1017.74 1018.39 1018.65 1018.57 1018.43 1017.73 1017.16 1016.65 1016.35 1016.02 1016.09 1015.75 1014.93 1013.99 1013.84 1013.29 1012.97 1012.98 1013.07 1013.28 1013.72 1014.04 1014.39
1011.47 1011.81 1012.11 1012.42 1012.71 1012.97 1013.26 1013.69 1013.93 1014.53 1014.79 1014.15 1014.97 1014.84 1013.97 1013.82 1014.28 1015.02 1015.51 1016.08 1016.64 1017.11 1017.35 1017.03 1016.64 1016.25 1016.57 1015.71 1015.67 1014.40 1014.51 1013.94 1014.52 1013.34 1012.82 1012.91 1012.58 1012.31 1012.92 1013.49 1014.01 1014.62 1014.99 1015.10
1010.44 1010.83 1011.15 1011.44 1011.81 1012.32 1013.24 1012.86 1012.50 1012.96 1013.57 1013.94 1013.98 1013.85 1013.57 1013.66 1013.97 1014.35 1014.81 1015.21 1015.73 1016.17 1015.95 1015.53 1015.07 1014.73 1014.77 1014.16 1013.32 1012.41 1012.86 1013.03 1013.07 1012.52 1012.32 1012.51 1012.55 1013.28 1014.07 1014.63 1015.19 1015.50 1015.86 1016.15
1009.34 1009.75 1010.16 1010.67 1011.00 1011.64 1011.88 1011.65 1011.81 1011.77 1012.80 1013.30 1013.35 1013.42 1013.44 1013.39 1013.68 1014.29 1014.34 1014.50 1014.68 1014.98 1015.00 1014.29 1014.07 1013.68 1013.80 1013.04 1012.14 1012.05 1012.59 1012.56 1012.52 1012.98 1013.29 1013.19 1013.86 1014.66 1015.43 1015.83 1016.20 1016.40 1016.53 1016.63
1008.36 1008.81 1009.29 1009.71 1010.09 1010.51 1010.68 1010.60 1011.36 1011.79 1012.19 1012.31 1012.79 1013.48 1014.23 1013.29 1013.90 1014.20 1013.75 1014.07 1014.29 1014.08 1013.71 1013.33 1013.05 1013.11 1013.09 1012.05 1011.71 1012.17 1012.33 1013.20 1013.91 1014.73 1015.11 1015.48 1015.95 1016.33 1016.72 1017.06 1017.13 1016.92 1016.89 1016.90
1007.49 1008.01 1008.58 1009.13 1009.41 1009.64 1009.69 1009.89 1010.32 1010.80 1011.31 1011.32 1011.89 1013.00 1013.29 1012.90 1012.98 1013.07 1013.59 1013.42 1013.76 1013.03 1012.87 1012.46 1012.72 1012.39 1011.82 1011.64 1012.40 1013.03 1014.19 1015.05 1015.92 1016.44 1016.69 1016.98 1017.34 1017.63 1017.96 1018.22 1018.28 1018.23 1017.59 1017.48
1006.75 1007.61 1007.95 1007.98 1008.25 1008.33 1008.96 1009.44 1009.58 1009.49 1009.64 1010.25 1010.86 1011.98 1012.56 1012.15 1012.51 1012.87 1013.50 1013.12 1012.88 1012.87 1012.21 1011.97 1012.23 1011.70 1011.91 1012.89 1014.05 1015.04 1016.12 1017.05 1017.65 1018.09 1018.42 1018.65 1018.76 1018.83 1018.91 1018.99 1019.06 1018.96 1018.61 1018.29
1005.98 1006.11 1006.92 1007.45 1007.66 1008.41 1009.11 1009.28 1009.37 1009.34 1009.56 1009.78 1010.32 1010.67 1011.36 1011.31 1011.61 1012.00 1012.48 1012.28 1012.41 1012.74 1012.30 1012.95 1013.09 1013.23 1013.59 1014.99 1015.94 1016.86 1017.80 1018.63 1019.33 1019.79 1019.94 1020.09 1020.06 1019.86 1019.60 1019.43 1019.48 1019.36 1019.08 1018.71
1005.01 1005.85 1006.52 1007.41 1007.71 1008.43 1009.00 1009.08 1009.57 1009.98 1010.29 1010.54 1010.42 1010.30 1010.20 1010.83 1011.16 1011.59 1011.67 1011.87 1012.24 1012.47 1012.86 1013.97 1014.57 1014.72 1015.81 1017.05 1018.11 1018.84 1019.58 1020.23 1020.63 1020.90 1020.83 1020.70 1020.57 1020.53 1020.40 1020.07 1019.71 1019.41 1019.01 1018.58
1005.05 1005.49 1005.90 1006.56 1007.11 1008.07 1008.67 1009.60 1010.31 1010.71 1010.98 1010.81 1010.77 1010.61 1010.31 1010.75 1010.58 1010.81 1010.98 1011.37 1012.23 1013.20 1014.18 1014.75 1015.35 1016.11 1017.88 1019.06 1019.90 1020.41 1021.02 1021.43 1021.54 1021.52 1021.47 1021.26 1021.00 1020.89 1020.74 1020.22 1019.87 1019.36 1018.76 1018.21
1004.03 1004.65 1005.45 1006.08 1007.17 1008.10 1008.78 1010.01 1010.43 1010.10 1010.14 1010.42 1010.45 1010.46 1010.30 1010.25 1010.19 1009.87 1010.58 1011.21 1012.65 1014.25 1015.30 1015.79 1016.10 1017.98 1019.63 1020.89 1021.34 1021.86 1022.19 1022.20 1022.22 1022.13 1021.91 1021.55 1021.16 1020.77 1020.61 1020.23 1019.66 1019.10 1018.38 1017.55
1003.40 1003.77 1005.00 1006.42 1007.82 1009.21 1010.28 1010.42 1010.64 1010.66 1010.37 1010.56 1010.85 1010.56 1010.06 1010.25 1010.23 1010.14 1010.86 1012.56 1013.47 1014.59 1015.69 1016.42 1018.14 1019.73 1020.96 1021.81 1022.44 1022.94 1023.02 1022.97 1022.89 1022.59 1022.24 1021.66 1021.17 1020.70 1020.16 1019.64 1019.15 1018.64 1017.81 1017.03
1003.52 1004.34 1006.38 1008.47 1009.69 1011.49 1012.01 1012.01 1011.75 1011.43 1010.74 1010.49 1010.27 1010.30 1010.22 1010.46 1010.71 1011.19 1011.93 1013.67 1014.75 1015.54 1016.95 1018.45 1019.78 1021.09 1022.13 1022.92 1023.37 1023.54 1023.51 1023.43 1023.10 1022.56 1022.00 1021.43 1020.86 1020.35 1019.69 1019.05 1018.44 1017.63 1016.92 1016.31
1005.59 1007.60 1008.53 1009.71 1010.36 1011.08 1012.07 1011.90 1011.71 1011.52 1011.51 1010.99 1010.76 1010.82 1010.51 1011.18 1012.18 1013.29 1013.88 1015.24 1016.25 1017.83 1019.34 1020.34 1021.46 1022.45 1023.19 1023.73 1023.87 1023.72 1023.56 1023.34 1022.86 1022.33 1021.63 1021.01 1020.18 1019.59 1018.99 1018.41 1017.34 1016.75 1016.09 1015.62
Wind_Speed
3 5 6 8 10 14 4 2 3 0 5 7 4 14 7 8 21 13 8 8 18 18 15 19 19 17 10 5 4 5 10 5 11 20 6 6 6 12 7 12 11 10 11 10
3 1 2 6 9 11 1 3 2 1 1 8 10 9 7 10 19 20 4 6 8 13 15 12 13 13 3 7 5 3 4 4 4 6 6 4 2 2 4 10 5 12 13 7
2 2 5 3 4 7 3 1 1 2 2 6 6 13 15 16 9 11 9 15 13 16 20 17 12 4 4 3 2 4 3 5 12 16 15 8 11 11 11 14 10 13 14 20
5 5 3 5 5 5 4 1 3 1 3 7 13 11 9 15 12 2 5 4 9 9 11 10 10 8 4 1 3 3 2 14 16 18 11 7 7 13 18 16 16 12 19 19
8 8 6 2 4 6 3 3 2 2 3 5 5 4 13 20 24 15 20 19 18 15 15 13 16 6 4 5 3 2 3 3 5 12 18 13 19 18 18 21 20 15 19 8
9 12 8 8 8 6 2 1 2 0 3 1 2 3 4 4 5 7 7 8 6 9 5 3 2 4 5 5 2 2 2 3 5 18 12 8 13 22 21 18 17 2 8 4
13 12 12 12 9 8 4 3 2 0 5 4 4 1 1 2 2 3 5 6 1 1 4 4 3 8 11 13 16 12 9 10 5 13 7 20 8 6 9 11 8 6 5 4
15 15 14 14 14 12 3 3 4 3 4 5 8 7 5 3 3 3 5 7 5 1 3 2 6 6 7 11 13 14 17 11 4 5 9 10 8 3 3 2 6 5 5 7
12 13 16 17 16 16 4 3 4 3 1 8 13 8 6 5 3 5 4 2 3 2 2 4 5 6 5 6 8 1 1 12 9 2 5 7 1 3 1 5 5 7 7 8
17 15 15 16 18 19 5 4 7 3 5 6 6 5 5 5 2 2 3 5 2 2 3 3 4 6 5 4 5 4 3 3 8 6 4 9 5 6 1 7 7 6 5 9
19 18 20 18 17 18 13 4 9 9 4 9 8 8 9 2 3 5 5 4 4 2 2 5 4 4 4 0 3 4 6 5 5 3 3 8 4 4 5 8 4 4 5 12
22 20 21 20 20 19 16 6 7 8 6 4 3 11 13 14 11 6 3 6 6 4 3 2 2 3 2 4 4 3 3 7 5 9 8 4 4 9 12 5 7 8 9 12
20 19 19 19 21 22 18 7 5 5 4 4 6 13 14 7 12 13 9 2 6 5 4 4 4 8 4 3 8 4 5 4 11 15 15 17 17 17 6 8 14 13 8 6
22 21 21 20 20 20 17 7 5 7 2 5 8 3 6 9 10 11 12 12 2 2 3 6 6 6 6 8 9 10 7 5 6 14 17 14 16 16 16 15 10 3 3 2
23 21 21 18 18 20 12 4 7 9 6 2 3 2 6 6 11 14 13 12 10 7 7 6 8 6 8 5 6 13 10 17 10 14 19 15 16 17 3 1 1 3 4 6
24 23 22 19 17 16 2 3 8 11 8 5 3 2 3 7 8 11 12 11 7 5 5 6 8 6 6 6 7 13 12 11 15 19 18 16 13 5 6 2 3 4 5 7
24 24 22 21 18 7 5 3 2 13 9 4 4 3 3 0 4 1 3 5 4 5 6 9 11 10 8 7 15 16 9 13 14 2 3 11 3 0 6 5 6 7 8 8
23 22 22 22 20 14 9 9 8 9 3 4 4 4 3 4 2 3 4 4 4 5 5 1 9 6 7 11 14 12 12 2 5 5 5 4 4 2 5 6 8 12 11 10
21 20 19 6 5 5 3 11 19 8 5 4 4 7 6 5 3 2 2 3 4 3 6 6 6 6 9 7 12 8 3 2 2 4 3 2 3 6 5 7 6 9 13 12
20 11 5 3 6 7 8 4 5 9 6 5 3 2 3 5 5 2 3 3 4 5 7 2 6 14 12 3 5 7 6 5 3 2 2 5 2 7 10 8 8 10 12 14
4 5 4 2 9 3 3 5 4 3 3 4 3 5 4 3 4 5 4 3 3 4 7 7 3 5 4 6 7 6 6 5 4 2 3 4 6 9 10 10 9 11 12 12
7 5 6 3 4 4 6 5 4 4 7 2 5 4 5 3 3 4 4 5 3 6 2 3 3 5 4 4 4 4 5 4 3 2 5 7 9 9 10 10 12 12 12 12
2 4 6 5 5 9 9 10 3 2 3 4 3 4 4 3 3 3 5 6 6 3 3 5 7 3 4 2 1 2 3 2 3 5 5 7 8 8 8 12 11 12 12 12
6 7 8 8 6 6 6 7 7 5 3 5 2 3 4 3 4 3 3 2 4 3 4 7 3 4 3 1 0 2 3 4 5 6 7 8 9 10 9 10 10 10 11 12
5 4 8 5 2 3 1 1 4 2 4 4 3 2 3 2 3 4 3 2 5 7 7 4 2 3 3 0 0 3 4 5 5 5 6 8 8 8 10 9 8 9 11 11
4 2 4 3 5 3 2 1 1 1 3 2 2 3 4 4 3 5 6 4 7 6 3 2 3 2 1 2 3 4 4 5 6 6 5 8 8 8 9 9 8 9 7 9
3 2 3 2 2 4 3 4 4 2 2 4 3 7 9 2 3 4 5 7 4 3 2 1 1 2 3 3 3 5 5 6 6 4 6 6 6 6 5 6 5 5 7 6
Wind_Direction
79 58 27 22 7 351 80 208 220 117 146 196 230 234 231 238 263 269 279 259 259 260 267 272 265 245 210 197 178 179 220 201 237 255 235 220 195 252 239 239 251 244 268 263
204 272 18 40 29 32 355 191 263 210 344 227 228 247 258 250 265 266 267 264 256 268 267 279 245 244 243 290 279 292 7 229 285 305 325 41 121 292 276 279 273 243 262 269
259 63 5 32 39 34 72 261 233 242 232 263 254 254 262 265 246 258 246 264 265 275 275 264 266 263 311 41 170 320 190 227 257 270 265 262 272 270 273 267 261 289 267 285
240 272 300 314 40 59 76 51 242 246 231 240 247 246 266 271 276 195 322 259 245 275 285 277 261 251 262 298 357 355 323 269 267 268 289 317 298 290 286 263 265 264 288 285
249 257 247 248 147 107 80 162 214 353 286 305 300 234 244 256 269 276 270 267 276 279 269 258 283 288 193 236 356 25 128 286 337 297 293 292 281 270 260 266 278 262 258 260
243 254 234 219 190 115 106 324 316 81 259 343 143 220 285 314 15 55 46 13 327 296 315 14 8 300 289 280 298 241 251 271 262 269 285 298 277 251 252 254 263 270 250 112
237 237 240 231 225 171 140 188 104 234 273 200 199 296 106 318 359 276 329 344 16 345 294 270 269 248 252 238 237 219 249 253 251 275 321 268 253 67 73 95 97 99 101 199
242 228 228 232 224 213 149 157 134 155 258 261 257 257 256 273 298 266 271 269 252 265 35 355 350 330 342 254 227 229 213 230 249 226 213 282 293 40 93 185 173 176 208 248
256 258 247 230 224 229 136 161 145 139 228 243 233 249 236 252 235 314 247 330 359 34 103 71 181 225 222 290 316 61 109 217 222 116 221 229 174 251 253 116 262 222 202 232
251 253 252 245 237 235 167 191 170 156 238 216 162 182 189 167 136 206 302 276 356 37 133 134 172 237 208 243 198 243 359 20 213 238 250 288 237 259 127 92 243 227 198 224
244 249 249 242 243 239 232 200 191 191 221 240 199 190 208 138 150 159 235 26 343 55 89 135 241 195 225 276 258 206 183 172 223 79 32 292 215 356 147 220 271 224 260 246
247 247 249 250 241 249 237 239 188 201 220 237 214 231 218 202 187 159 222 204 169 187 111 245 51 290 350 172 243 170 269 197 189 185 216 243 223 231 275 203 227 258 241 241
241 241 243 244 249 251 242 234 176 209 234 237 219 230 227 230 213 195 223 254 182 210 174 173 214 234 149 220 240 234 244 231 255 270 261 255 265 272 257 268 267 273 240 244
243 244 245 248 245 253 252 230 183 209 195 237 249 24 188 207 197 199 212 233 136 162 163 220 220 236 208 250 254 235 229 183 216 252 261 270 266 264 264 266 278 271 284 251
240 246 251 254 250 258 253 223 185 201 222 248 262 322 241 182 183 203 212 221 224 224 227 227 242 235 234 229 242 247 220 238 229 250 261 259 271 277 47 249 290 35 336 316
239 238 241 246 250 246 163 232 203 199 200 249 223 280 203 200 183 186 192 206 206 203 213 231 234 230 205 241 244 252 251 229 235 249 259 271 271 105 56 26 350 324 307 288
240 234 237 242 242 225 202 200 240 195 175 220 240 249 279 300 142 167 170 179 192 203 228 235 246 242 217 250 257 265 238 231 246 347 356 272 94 69 353 344 323 306 289 278
235 232 233 234 238 245 242 225 228 181 212 196 213 250 0 184 172 208 175 168 181 210 222 271 229 243 228 247 253 245 248 92 89 47 29 360 344 353 341 341 338 323 315 314
228 228 231 237 221 198 204 202 193 194 200 209 177 159 232 167 190 144 30 168 189 195 217 216 180 215 225 217 241 253 74 108 21 339 331 10 342 321 336 337 318 300 306 317
221 214 180 205 185 180 164 170 220 199 194 219 201 58 202 166 162 192 111 195 212 208 226 177 220 246 251 81 93 99 108 87 37 28 334 344 322 330 322 316 305 296 297 302
186 181 182 112 151 86 167 210 216 197 208 202 143 176 141 224 147 183 214 200 212 212 243 170 219 265 197 122 102 95 83 75 72 59 298 283 277 295 303 302 299 296 293 295
173 132 106 156 165 180 201 189 180 207 217 247 149 175 167 161 136 157 202 201 185 236 117 178 227 235 126 125 101 77 55 27 349 322 302 304 300 303 298 296 296 294 294 296
154 188 157 173 170 199 187 178 221 186 170 199 173 175 150 158 205 194 188 212 221 92 137 219 220 144 114 102 74 43 10 319 307 305 295 289 286 284 278 286 284 287 290 289
202 169 196 186 172 206 174 164 179 225 138 141 140 116 164 194 177 194 220 208 132 216 222 231 224 156 153 255 39 39 304 308 301 289 289 290 291 288 279 269 278 284 286 290
229 184 191 185 146 43 145 78 101 186 134 145 98 42 164 210 209 206 195 184 225 198 223 226 190 138 158 198 274 274 294 299 286 272 274 281 281 283 286 276 270 269 275 282
229 74 95 26 68 318 8 79 306 270 150 82 60 143 163 211 209 204 213 190 219 240 196 192 121 122 359 282 275 279 273 272 271 277 273 289 284 278 279 287 277 269 268 287
99 119 6 15 70 146 163 156 171 145 93 174 165 171 203 83 195 235 194 205 217 169 147 120 124 183 253 268 282 281 283 290 285 272 276 266 263 274 279 284 278 286 293 287